Overview Statistics Trail Chart Weather Telemetry Raw packets
 

This is the latest recevied weather packets stored in our database for station/object DL2GFH-3. If no packets are shown the sender has not sent any weather packets the latest 10 day(s).

<< 22 23 24 25 26 27 28 >>
Time Temp. Humidity Pressure Rain* Wind** Luminosity Snow
1777021563 28.33° C 16% 1020.2 hPa - - - -
1777020657 28.33° C 16% 1020.3 hPa - - - -
1777019752 28.33° C 16% 1020.2 hPa - - - -
1777018846 28.89° C 15% 1020.3 hPa - - - -
1777017941 28.33° C 15% 1020.3 hPa - - - -
1777017035 27.22° C 16% 1020.3 hPa - - - -
1777016130 28.33° C 15% 1020.3 hPa - - - -
1777015225 28.33° C 15% 1020.3 hPa - - - -
1777014319 27.78° C 15% 1020.3 hPa - - - -
1777013414 27.22° C 15% 1020.5 hPa - - - -
1777012508 26.67° C 16% 1020.6 hPa - - - -
1777011603 26.67° C 16% 1020.8 hPa - - - -
1777010698 26.11° C 16% 1021 hPa - - - -
1777009792 25.56° C 16% 1021 hPa - - - -
1777008887 24.44° C 17% 1021.1 hPa - - - -
1777007981 23.89° C 17% 1021.1 hPa - - - -
1777007076 23.33° C 17% 1021.1 hPa - - - -
1777006170 23.33° C 18% 1021.2 hPa - - - -
1777005265 22.22° C 19% 1021.2 hPa - - - -
1777004360 21.67° C 19% 1021.2 hPa - - - -
1777003454 22.22° C 19% 1021.2 hPa - - - -
1777002549 21.67° C 19% 1021.4 hPa - - - -
1777001643 23.89° C 17% 1021.1 hPa - - - -
1777000738 25° C 16% 1021.2 hPa - - - -
1776999833 24.44° C 17% 1021.2 hPa - - - -

* Rain since midnight (hover to see other rain measurements)
** Current wind speed in m/s (hover to see current wind gust speed)